Date String (YYYY-MM-DD hh:mm:ss) UTC,Instrument flags,Ambient pressure (hPa),Sample flow (lpm),Bypass flow (lpm),Sample temperature (°C),Ambient temperature (°C),ASC tube jacket temperature (°C),LED temperature (°C),Box temperature (°C),Sample RH (%),Span deviation,Mass concentration (μg/m³),Mass concentration (μg/m³),Mass concentration (μg/m³)
DateTimeUTC,F1_M11,P_M11,Q1_M11,Q2_M11,T1_M11,T2_M11,T3_M11,T4_M11,T5_M11,U1_M11,ZSPAN_M11,X2_M11,X0_M11,X1_M11
2021-12-29 21:00:00,,0812.7,5.00,0.00,21.8,21.2,00.0,30.9,23.4,07.2,0000.0,0003.64,0012.28,0001.95
2021-12-29 21:01:00,,0812.7,4.99,0.00,21.8,21.2,00.0,30.9,23.4,07.2,0000.0,0003.64,0012.97,0001.98
2021-12-29 21:02:00,,0812.8,5.00,0.00,21.8,21.2,00.0,30.9,23.4,07.2,0000.0,0003.68,0014.34,0002.01
2021-12-29 21:03:00,,0812.8,4.99,0.00,21.8,21.2,00.0,30.9,23.4,07.2,0000.0,0003.70,0014.62,0002.04
2021-12-29 21:04:00,,0812.7,5.00,0.00,21.8,21.2,00.0,30.9,23.4,07.2,0000.0,0003.72,0013.86,0002.04
2021-12-29 21:05:00,,0812.7,5.01,0.00,21.8,21.2,00.0,30.9,23.4,07.2,0000.0,0003.73,0014.05,0002.04
2021-12-29 21:06:00,,0812.7,5.00,0.00,21.8,21.2,00.0,30.8,23.4,07.2,0000.0,0003.73,0015.02,0002.04
2021-12-29 21:07:00,,0812.7,5.01,0.00,21.8,21.1,00.0,30.8,23.4,07.2,0000.0,0003.73,0015.18,0002.02
2021-12-29 21:08:00,,0812.8,4.98,0.00,21.7,20.9,00.0,30.8,23.3,07.2,0000.0,0003.69,0015.94,0002.01
2021-12-29 21:09:00,,0812.8,5.00,0.00,21.7,20.8,00.0,30.8,23.2,07.2,0000.0,0003.64,0015.27,0002.00
2021-12-29 21:10:00,,0812.8,5.00,0.00,21.7,20.8,00.0,30.8,23.2,07.2,0000.0,0003.60,0016.00,0001.98
2021-12-29 21:11:00,,0812.9,5.01,0.00,21.7,21.2,00.0,30.8,23.4,07.2,0000.0,0003.57,0015.92,0001.97
2021-12-29 21:12:00,,0812.8,5.00,0.00,21.8,22.0,00.0,30.9,23.7,07.2,0000.0,0003.53,0015.88,0001.95
2021-12-29 21:13:00,,0812.9,4.99,0.00,22.0,22.9,00.0,30.9,24.0,07.1,0000.0,0003.49,0015.18,0001.95
2021-12-29 21:14:00,,0812.8,5.00,0.00,22.1,22.9,00.0,30.9,24.1,07.0,0000.0,0003.45,0015.72,0001.93
2021-12-29 21:15:00,,0812.8,5.01,0.00,22.2,22.7,00.0,31.0,24.1,07.0,0000.0,0003.44,0015.89,0001.94
2021-12-29 21:16:00,,0812.8,4.99,0.00,22.2,22.5,00.0,31.0,24.0,07.0,0000.0,0003.39,0015.77,0001.92
2021-12-29 21:17:00,,0812.8,5.00,0.00,22.2,22.3,00.0,31.0,24.0,07.1,0000.0,0003.36,0015.12,0001.92
2021-12-29 21:18:00,,0812.9,5.01,0.00,22.2,22.1,00.0,31.0,23.9,07.1,0000.0,0003.35,0014.66,0001.93
2021-12-29 21:19:00,,0812.9,4.98,0.00,22.2,22.0,00.0,31.1,23.9,07.0,0000.0,0003.33,0013.51,0001.93
2021-12-29 21:20:00,,0813.0,5.01,0.00,22.2,21.9,00.0,31.1,23.9,07.1,0000.0,0003.35,0013.09,0001.92
2021-12-29 21:21:00,,0813.1,5.00,0.00,22.2,21.9,00.0,31.1,23.9,07.1,0000.0,0003.34,0012.31,0001.92
2021-12-29 21:22:00,,0813.1,4.99,0.00,22.2,21.8,00.0,31.1,23.9,07.1,0000.0,0003.38,0011.90,0001.93
2021-12-29 21:23:00,,0813.2,5.01,0.00,22.2,21.8,00.0,31.1,23.9,07.1,0000.0,0003.37,0011.65,0001.94
2021-12-29 21:24:00,,0813.4,4.99,0.00,22.2,21.8,00.0,31.1,23.9,07.1,0000.0,0003.38,0011.96,0001.93
2021-12-29 21:25:00,,0813.2,5.01,0.00,22.2,21.7,00.0,31.1,23.9,07.1,0000.0,0003.37,0011.12,0001.92
2021-12-29 21:26:00,,0813.0,5.00,0.00,22.2,21.7,00.0,31.1,23.9,07.1,0000.0,0003.33,0011.45,0001.90
2021-12-29 21:27:00,,0813.0,4.99,0.00,22.2,21.7,00.0,31.1,23.8,07.1,0000.0,0003.33,0012.25,0001.91
2021-12-29 21:28:00,,0813.2,5.00,0.00,22.2,21.6,00.0,31.1,23.8,07.1,0000.0,0003.37,0012.50,0001.92
2021-12-29 21:29:00,,0813.0,5.01,0.00,22.1,21.6,00.0,31.1,23.8,07.1,0000.0,0003.37,0012.48,0001.92
2021-12-29 21:30:00,,0813.1,4.98,0.00,22.1,21.5,00.0,31.1,23.8,07.1,0000.0,0003.42,0012.63,0001.91
2021-12-29 21:31:00,,0813.2,5.01,0.00,22.1,21.5,00.0,31.1,23.8,07.1,0000.0,0003.44,0012.76,0001.92
2021-12-29 21:32:00,,0813.2,5.00,0.00,22.1,21.5,00.0,31.1,23.8,07.1,0000.0,0003.50,0013.61,0001.94
2021-12-29 21:33:00,,0813.2,4.99,0.00,22.1,21.5,00.0,31.1,23.8,07.1,0000.0,0003.48,0013.77,0001.93
2021-12-29 21:34:00,,0813.3,5.01,0.00,22.1,21.5,00.0,31.1,23.8,07.1,0000.0,0003.46,0013.77,0001.92
2021-12-29 21:35:00,,0813.2,5.00,0.00,22.1,21.5,00.0,31.1,23.8,07.1,0000.0,0003.46,0013.02,0001.92
2021-12-29 21:36:00,,0813.1,4.98,0.00,22.1,21.6,00.0,31.1,23.8,07.1,0000.0,0003.51,0012.68,0001.92
2021-12-29 21:37:00,,0813.1,5.00,0.00,22.2,21.6,00.0,31.1,23.9,07.1,0000.0,0003.58,0012.79,0001.93
2021-12-29 21:38:00,,0813.1,4.99,0.00,22.2,21.6,00.0,31.1,23.9,07.1,0000.0,0003.60,0012.63,0001.93
2021-12-29 21:39:00,,0813.1,5.00,0.00,22.2,21.6,00.0,31.1,23.9,07.1,0000.0,0003.58,0011.90,0001.92
2021-12-29 21:40:00,,0813.1,5.00,0.00,22.2,21.7,00.0,31.1,23.9,07.1,0000.0,0003.59,0012.70,0001.92
2021-12-29 21:41:00,,0813.0,4.99,0.00,22.2,21.7,00.0,31.2,23.9,07.1,0000.0,0003.61,0012.83,0001.93
2021-12-29 21:42:00,,0813.2,5.00,0.00,22.2,21.7,00.0,31.2,23.9,07.1,0000.0,0003.64,0012.84,0001.94
2021-12-29 21:43:00,,0813.3,5.01,0.00,22.2,21.7,00.0,31.2,23.9,07.1,0000.0,0003.66,0012.44,0001.94
2021-12-29 21:44:00,,0813.1,5.00,0.00,22.2,21.6,00.0,31.2,23.9,07.1,0000.0,0003.67,0012.44,0001.94
2021-12-29 21:45:00,,0813.0,4.98,0.00,22.2,21.6,00.0,31.2,23.9,07.1,0000.0,0003.72,0013.09,0001.95
2021-12-29 21:46:00,,0813.2,5.00,0.00,22.2,21.6,00.0,31.2,23.8,07.1,0000.0,0003.76,0013.04,0001.96
2021-12-29 21:47:00,,0813.3,5.01,0.00,22.2,21.6,00.0,31.2,23.8,07.1,0000.0,0003.79,0013.09,0001.98
2021-12-29 21:48:00,,0813.1,4.99,0.00,22.2,21.6,00.0,31.2,23.8,07.1,0000.0,0003.77,0013.19,0001.99
2021-12-29 21:49:00,,0813.1,5.00,0.00,22.2,21.6,00.0,31.2,23.8,07.1,0000.0,0003.79,0012.49,0002.01
2021-12-29 21:50:00,,0813.2,5.00,0.00,22.1,21.5,00.0,31.2,23.8,07.1,0000.0,0003.81,0012.81,0002.01
2021-12-29 21:51:00,,0813.2,5.01,0.00,22.1,21.5,00.0,31.2,23.8,07.1,0000.0,0003.84,0012.04,0002.00
2021-12-29 21:52:00,,0813.2,5.00,0.00,22.1,21.5,00.0,31.2,23.8,07.1,0000.0,0003.81,0012.02,0002.01
2021-12-29 21:53:00,,0813.2,4.99,0.00,22.2,21.9,00.0,31.2,23.9,07.0,0000.0,0003.78,0012.31,0002.01
2021-12-29 21:54:00,,0813.3,5.00,0.00,22.3,22.6,00.0,31.2,24.2,07.0,0000.0,0003.76,0014.01,0002.01
2021-12-29 21:55:00,,0813.3,5.00,0.00,22.5,23.2,00.0,31.3,24.4,06.9,0000.0,0003.78,0013.66,0002.02
2021-12-29 21:56:00,,0813.3,5.00,0.00,22.5,23.0,00.0,31.3,24.4,06.9,0000.0,0003.77,0012.98,0002.01
2021-12-29 21:57:00,,0813.3,5.00,0.00,22.5,22.8,00.0,31.3,24.4,06.9,0000.0,0003.81,0013.86,0002.01
2021-12-29 21:58:00,,0813.3,5.01,0.00,22.5,22.6,00.0,31.3,24.3,06.9,0000.0,0003.81,0014.34,0001.99
2021-12-29 21:59:00,,0813.3,4.99,0.00,22.5,22.5,00.0,31.4,24.3,06.9,0000.0,0003.84,0014.23,0002.00
